CW4772 Weather Reports


time (UTC)temp
C
wind
direction
speed
KPH
gust
KPH
rain 1hr
cm
rain 24hr
cm
rain mn
cm
humidity
%
barometer
mb
20260506152703 20 128 12.9 27.4 0.00 0.00 0.00 61 1002.0
20260506152203 20 119 9.7 27.4 0.00 0.00 0.00 62 1002.1
20260506151203 20 145 16.1 25.7 0.00 0.00 0.00 61 1002.1
20260506150203 20 126 14.5 25.7 0.00 0.00 0.00 60 1002.3
20260506145703 20 131 11.3 25.7 0.00 0.00 0.00 60 1002.3
20260506145203 20 140 12.9 24.1 0.00 0.00 0.00 58 1002.4
20260506144204 21 150 11.3 22.5 0.00 0.00 0.00 60 1002.5
20260506143703 20 156 9.7 20.9 0.00 0.00 0.00 61 1002.4
20260506142704 20 114 12.9 25.7 0.00 0.00 0.00 61 1002.5
20260506142204 20 134 14.5 25.7 0.00 0.00 0.00 62 1002.6
20260506141703 20 121 12.9 24.1 0.00 0.00 0.00 64 1002.7
20260506141204 20 129 11.3 20.9 0.00 0.00 0.00 63 1002.7
20260506140703 20 130 11.3 25.7 0.00 0.00 0.00 63 1002.7
20260506140203 20 117 12.9 25.7 0.00 0.00 0.00 62 1002.7
20260506135704 20 133 12.9 25.7 0.00 0.00 0.00 62 1002.7
20260506134704 20 169 8.0 20.9 0.00 0.00 0.00 60 1002.8
20260506133704 20 125 9.7 27.4 0.00 0.00 0.00 62 1002.8
20260506133203 20 147 16.1 27.4 0.00 0.00 0.00 60 1002.8
20260506132703 20 149 11.3 22.5 0.00 0.00 0.00 60 1002.9
20260506132204 20 116 11.3 22.5 0.00 0.00 0.00 59 1003.0
20260506131703 21 144 14.5 22.5 0.00 0.00 0.00 58 1003.1
20260506131204 21 157 9.7 19.3 0.00 0.00 0.00 57 1003.1
20260506130204 21 158 6.4 20.9 0.00 0.00 0.00 58 1003.2
20260506125203 20 106 4.8 16.1 0.00 0.00 0.00 60 1003.3
20260506124703 20 115 8.0 22.5 0.00 0.00 0.00 60 1003.4
20260506123204 19 142 11.3 22.5 0.00 0.00 0.00 60 1003.7
20260506122704 20 112 9.7 22.5 0.00 0.00 0.00 60 1003.7
20260506121703 20 127 9.7 20.9 0.00 0.00 0.00 59 1003.7
20260506121203 20 98 6.4 19.3 0.00 0.00 0.00 61 1003.9
20260506120203 20 108 8.0 25.7 0.00 0.00 0.00 58 1004.0
20260506115704 20 145 11.3 25.7 0.00 0.00 0.00 56 1004.0
20260506114204 21 175 9.7 29.0 0.00 0.00 0.00 55 1004.0
20260506112703 20 144 11.3 20.9 0.00 0.00 0.00 58 1004.2
20260506111703 20 205 3.2 9.7 0.00 0.00 0.00 62 1004.2
20260506110203 20 236 4.8 11.3 0.00 0.00 0.00 61 1004.3
20260506105204 20 164 4.8 16.1 0.00 0.00 0.00 61 1004.3
20260506104204 20 191 4.8 14.5 0.00 0.00 0.00 59 1004.4
20260506103204 20 126 3.2 9.7 0.00 0.00 0.00 63 1004.4
20260506102703 20 36 3.2 12.9 0.00 0.00 0.00 59 1004.5
20260506102203 20 193 4.8 12.9 0.00 0.00 0.00 62 1004.7
20260506095704 19 142 6.4 11.3 0.00 0.00 0.00 63 1005.0
20260506095203 20 230 3.2 9.7 0.00 0.00 0.00 62 1005.0
20260506092703 19 211 8.0 14.5 0.00 0.00 0.00 65 1005.3
20260506091204 18 115 6.4 14.5 0.00 0.00 0.00 69 1005.2
20260506085704 18 223 4.8 9.7 0.00 0.00 0.00 70 1005.3
20260506085204 17 260 3.2 12.9 0.00 0.00 0.00 69 1005.3
20260506082203 17 207 4.8 11.3 0.00 0.00 0.00 71 1005.2
20260506081204 16 231 3.2 19.3 0.00 0.00 0.00 73 1005.2
20260506073203 16 211 3.2 11.3 0.00 0.00 0.00 75 1005.3
20260506072203 16 212 4.8 9.7 0.00 0.00 0.00 77 1005.4
20260506071204 15 214 3.2 12.9 0.00 0.00 0.00 77 1005.4
20260506070204 15 221 3.2 12.9 0.00 0.00 0.00 78 1005.5
20260506062203 13 252 3.2 14.5 0.00 0.00 0.00 84 1005.5
20260506061704 13 228 8.0 14.5 0.00 0.00 0.00 84 1005.5
20260506061204 13 239 6.4 12.9 0.00 0.00 0.00 86 1005.5
20260506060704 13 221 4.8 12.9 0.00 0.00 0.00 86 1005.3
20260506060204 13 224 3.2 9.7 0.00 0.00 0.00 88 1005.3
20260506044204 10 161 1.6 3.2 0.00 0.00 0.00 98 1005.2
20260506042203 10 161 1.6 4.8 0.00 0.00 0.00 98 1004.6
20260506041704 10 177 1.6 4.8 0.00 0.00 0.00 97 1004.7
20260506041204 10 230 1.6 3.2 0.00 0.00 0.00 97 1004.9
20260506035204 10 230 1.6 3.2 0.00 0.00 0.00 97 1004.7
20260506034704 10 230 1.6 3.2 0.00 0.00 0.00 97 1004.8
20260506031704 10 230 0.0 3.2 0.00 0.00 0.00 96 1004.4
20260506025704 11 225 1.6 4.8 0.00 0.00 0.00 96 1004.6
20260506024704 11 225 3.2 8.0 0.00 0.00 0.00 96 1004.6
20260506023704 11 221 3.2 8.0 0.00 0.00 0.00 95 1004.7
20260506021704 11 242 1.6 4.8 0.00 0.00 0.00 95 1004.6
20260506014705 11 228 3.2 4.8 0.00 0.00 0.00 95 1004.8
20260506014204 11 218 1.6 8.0 0.00 0.00 0.00 94 1004.8
20260506013705 11 218 3.2 8.0 0.00 0.00 0.00 94 1004.8
20260506012703 11 222 3.2 8.0 0.00 0.00 0.00 94 1004.7
20260506012204 11 238 3.2 8.0 0.00 0.00 0.00 93 1004.6
20260506011704 11 231 3.2 8.0 0.00 0.00 0.00 92 1004.7
20260506010204 12 241 1.6 4.8 0.00 0.00 0.00 91 1004.5
20260506004704 12 264 1.6 4.8 0.00 0.00 0.00 89 1004.4
20260506004204 12 264 0.0 4.8 0.00 0.00 0.00 89 1004.3
20260506003704 12 261 1.6 4.8 0.00 0.00 0.00 88 1004.2
20260506002204 13 284 1.6 9.7 0.00 0.00 0.00 87 1004.0
20260506001204 13 240 3.2 8.0 0.00 0.00 0.00 87 1004.1
20260505235704 13 275 3.2 4.8 0.00 0.00 0.00 87 1003.5
20260505233204 14 284 8.0 16.1 0.00 0.00 0.00 84 1003.8
20260505232204 14 288 9.7 19.3 0.00 0.00 0.00 83 1003.9
20260505230704 15 297 11.3 20.9 0.00 0.00 0.00 80 1004.0
20260505224204 15 294 8.0 22.5 0.00 0.00 0.00 80 1004.2
20260505223204 15 290 12.9 19.3 0.00 0.00 0.00 80 1004.0
20260505222704 15 286 6.4 19.3 0.00 0.00 0.00 80 1004.1
20260505222204 15 286 8.0 16.1 0.00 0.00 0.00 81 1004.1
20260505221205 15 269 4.8 19.3 0.00 0.00 0.00 80 1004.0
20260505220706 15 293 9.7 20.9 0.00 0.00 0.00 80 1004.0
20260505215704 15 290 9.7 20.9 0.00 0.00 0.00 79 1003.5
20260505212204 15 203 3.2 16.1 0.00 0.00 0.00 72 1002.7
20260505210704 16 164 8.0 16.1 0.00 0.00 0.00 70 1002.5
20260505204705 16 150 8.0 19.3 0.00 0.00 0.00 69 1002.2
20260505204205 16 139 6.4 19.3 0.00 0.00 0.00 69 1002.0
20260505203704 16 100 8.0 19.3 0.00 0.00 0.00 69 1001.9
20260505201705 16 102 8.0 19.3 0.00 0.00 0.00 69 1001.7
20260505201204 16 83 9.7 19.3 0.00 0.00 0.00 69 1001.8
20260505200706 16 85 4.8 19.3 0.00 0.00 0.00 68 1001.7
20260505200204 16 99 8.0 19.3 0.00 0.00 0.00 68 1001.7
20260505195705 17 108 8.0 19.3 0.00 0.00 0.00 67 1001.8
20260505194203 17 113 12.9 20.9 0.00 0.00 0.00 67 1001.6
20260505193204 17 109 3.2 16.1 0.00 0.00 0.00 67 1001.7
20260505192704 17 106 8.0 16.1 0.00 0.00 0.00 67 1001.6
20260505191704 17 68 6.4 14.5 0.00 0.00 0.00 67 1001.6
20260505191204 17 68 4.8 12.9 0.00 0.00 0.00 67 1001.6
20260505190204 17 64 4.8 14.5 0.00 0.00 0.00 66 1001.7
20260505185704 17 79 4.8 11.3 0.00 0.00 0.00 67 1001.7
20260505185204 17 83 4.8 11.3 0.00 0.00 0.00 71 1001.6
20260505184205 17 45 4.8 11.3 0.00 0.00 0.00 70 1001.7
20260505183205 17 39 4.8 8.0 0.00 0.00 0.00 71 1001.6
20260505182706 17 27 3.2 9.7 0.00 0.00 0.00 71 1001.7
20260505182204 17 30 3.2 11.3 0.00 0.00 0.00 72 1001.7
20260505180704 17 31 4.8 14.5 0.00 0.00 0.00 71 1001.8
20260505174704 18 20 4.8 12.9 0.00 0.00 0.00 69 1001.7
20260505173704 18 9 4.8 12.9 0.00 0.00 0.00 66 1001.8
20260505173204 19 24 4.8 12.9 0.00 0.00 0.00 65 1001.8
20260505171203 20 30 1.6 4.8 0.00 0.00 0.00 61 1001.9
20260505170203 20 46 1.6 3.2 0.00 0.00 0.00 60 1002.0
20260505165704 20 51 1.6 3.2 0.00 0.00 0.00 59 1002.1
20260505165203 20 51 1.6 3.2 0.00 0.00 0.00 59 1002.1
20260505164703 20 51 1.6 3.2 0.00 0.00 0.00 58 1002.2
20260505164204 20 51 1.6 3.2 0.00 0.00 0.00 59 1002.2
20260505163203 21 55 1.6 3.2 0.00 0.00 0.00 55 1002.3
20260505161703 21 115 3.2 4.8 0.00 0.00 0.00 52 1002.4
20260505161203 21 165 3.2 8.0 0.00 0.00 0.00 52 1002.5